Date,TemperatureHighF,TemperatureAvgF,TemperatureLowF,DewpointHighF,DewpointAvgF,DewpointLowF,HumidityHigh,HumidityAvg,HumidityLow,PressureMaxIn,PressureMinIn,WindSpeedMaxMPH,WindSpeedAvgMPH,GustSpeedMaxMPH,PrecipitationSumIn
2012-1-1,58,49,36,44,26,9,74,42,28,29.82,29.35,19,6,19,0.00
2012-1-2,36,31,23,13,10,0,55,42,32,29.94,29.71,18,5,18,0.00
2012-1-3,33,26,21,10,5,2,55,42,30,30.09,29.85,10,2,10,0.00
2012-1-4,48,37,26,19,12,6,43,34,27,29.85,29.59,11,3,11,0.00
2012-1-5,56,43,32,26,22,18,67,45,27,29.76,29.56,11,2,11,0.00
2012-1-6,63,52,42,30,24,20,47,35,24,29.59,29.00,12,4,12,0.00
2012-1-7,57,51,39,45,28,15,67,43,25,29.79,29.41,10,2,10,0.00
2012-1-8,51,42,32,27,22,17,73,48,31,29.91,29.76,10,2,10,0.00
2012-1-9,54,44,37,26,21,19,53,40,29,29.82,29.68,8,1,8,0.00
2012-1-10,56,44,33,29,23,20,71,45,27,29.74,29.41,7,1,7,0.00
2012-1-11,80,47,43,51,43,25,98,87,43,29.44,29.00,10,2,10,0.12
2012-1-12,47,38,21,46,34,7,98,84,50,29.44,29.09,13,4,13,0.08
2012-1-13,27,23,19,13,10,6,68,57,52,29.76,29.41,12,4,12,0.00
2012-1-14,126,27,20,25,17,12,77,66,42,29.82,29.62,6,1,6,0.00
2012-1-15,39,31,23,22,19,0,100,64,42,30.06,29.82,8,2,8,0.00
2012-1-16,58,46,29,48,36,21,80,68,41,29.85,29.50,20,5,20,0.00
2012-1-17,63,51,34,57,40,19,95,67,51,29.79,29.29,20,7,20,0.34
2012-1-18,38,33,30,19,14,10,55,46,35,29.91,29.68,11,2,11,0.00
2012-1-19,45,36,29,23,19,15,64,51,38,29.71,29.50,12,3,12,0.00
2012-1-20,38,33,26,28,19,14,73,58,49,29.76,29.41,12,3,12,0.00
2012-1-21,35,33,31,31,27,23,89,79,72,29.74,29.41,13,5,13,0.00
2012-1-22,59,51,32,58,49,23,98,93,71,29.59,29.32,12,2,12,0.04
2012-1-23,59,52,42,58,44,31,98,76,47,29.62,29.23,20,4,20,0.49
2012-1-24,48,40,32,36,28,23,86,65,41,29.97,29.59,10,2,10,0.00
2012-1-25,40,36,32,40,32,24,98,84,68,29.94,29.65,115,2,115,0.26
2012-1-26,56,47,40,56,46,39,98,98,94,29.65,29.12,9,1,57,1.57
2012-1-27,42,40,38,41,36,32,98,85,71,29.68,29.23,10,2,10,0.04
2012-1-28,46,39,34,40,24,0,97,59,27,29.91,29.53,14,3,14,0.00
2012-1-29,52,40,32,20,16,11,53,40,21,29.91,29.74,17,4,17,0.00
2012-1-30,61,45,31,27,21,15,64,41,24,29.91,29.71,15,3,15,0.00
2012-1-31,63,56,50,35,25,18,47,31,26,29.79,29.62,13,5,15,0.00
2012-2-1,67,58,53,51,46,32,82,63,39,29.71,29.59,12,2,12,0.00
2012-2-2,58,50,41,41,34,26,72,56,29,29.97,29.68,6,1,6,0.00
2012-2-3,62,48,38,36,30,0,81,53,25,30.03,29.82,11,1,11,0.00
2012-2-4,53,48,44,47,40,26,98,80,35,29.82,29.62,8,1,8,0.37
2012-2-5,47,42,34,43,37,29,98,83,51,29.88,29.65,11,2,11,0.00
2012-2-6,53,40,30,38,28,21,97,68,35,29.85,29.76,7,1,7,0.00
2012-2-7,53,40,31,33,26,20,85,60,28,29.85,29.76,10,2,13,0.00
2012-2-8,41,37,34,32,30,24,85,73,58,29.94,29.82,6,2,9,0.00
2012-2-9,40,36,34,37,21,18,100,54,42,29.94,29.82,8,2,8,0.00
2012-2-10,40,37,35,33,24,19,86,60,50,29.82,29.56,10,2,10,0.05
2012-2-11,36,26,22,32,9,1,84,48,32,30.03,29.56,20,6,20,0.00
2012-2-12,44,29,21,17,7,2,47,39,30,30.03,29.91,9,3,9,0.00
2012-2-13,41,33,24,15,11,8,60,42,30,29.91,29.56,8,1,8,0.00
2012-2-14,41,38,34,37,31,15,91,78,40,29.68,29.47,9,2,9,0.16
2012-2-15,54,44,36,44,36,31,93,73,50,29.82,29.62,10,1,10,0.16
2012-2-16,52,48,39,51,43,33,98,85,58,29.79,29.53,115,2,115,0.16
2012-2-17,54,42,32,38,28,19,98,63,26,29.85,29.71,6,1,6,0.16
2012-2-18,54,44,35,35,26,0,80,53,27,29.71,29.62,14,2,14,0.16
2012-2-19,43,39,34,23,18,14,54,44,31,29.76,29.56,15,5,15,0.16
2012-2-20,51,38,28,22,19,15,71,47,27,29.91,29.71,11,2,11,0.16
2012-2-21,53,50,45,44,32,30,82,50,41,29.71,29.47,13,4,13,0.16
2012-2-22,63,51,39,42,31,24,83,48,25,29.50,29.09,19,3,19,0.16
2012-2-23,69,56,42,48,44,40,98,68,39,29.14,28.88,14,1,14,0.04
2012-2-24,55,46,38,50,29,18,87,53,32,29.65,28.94,17,4,17,0.04
2012-2-25,43,37,30,18,14,10,51,40,29,29.97,29.62,13,3,13,0.04
2012-2-26,57,41,26,21,16,10,68,41,19,30.00,29.76,12,2,12,0.04
2012-2-27,63,53,45,26,19,10,33,26,18,30.03,29.79,12,4,12,0.04
2012-2-28,68,52,37,33,23,12,47,33,23,30.06,29.56,10,2,10,0.00
2012-2-29,69,64,55,64,51,32,98,68,32,29.59,29.20,21,5,21,0.49
2012-3-1,67,60,48,38,29,20,42,31,24,29.50,29.20,13,2,13,0.49
2012-3-2,74,55,42,66,41,26,98,61,36,29.38,28.91,22,4,22,0.49
2012-3-3,45,40,35,27,22,16,59,47,31,29.53,29.35,13,3,13,0.00
2012-3-4,50,40,32,30,19,12,80,45,24,29.53,29.47,12,3,12,0.04
2012-3-5,40,34,30,33,25,18,94,69,45,30.06,29.47,6,1,6,0.33
2012-3-6,69,49,30,31,24,16,80,46,17,30.03,29.79,21,3,21,0.33
2012-3-7,72,62,50,39,30,14,40,31,19,29.91,29.74,26,6,26,0.33
2012-3-8,64,55,41,58,44,33,97,70,38,29.91,29.59,23,5,23,0.66
2012-3-9,55,45,36,33,20,9,78,42,18,30.09,29.91,18,4,18,0.33
2012-3-10,58,45,33,21,16,12,46,32,19,30.12,29.94,8,2,8,0.33
2012-3-11,73,54,35,31,26,20,69,38,19,29.97,29.76,11,2,11,0.33
2012-3-12,66,62,57,61,53,26,92,77,26,29.79,29.59,13,4,13,0.33
2012-3-13,78,68,60,64,54,42,97,66,30,29.76,29.62,11,2,11,0.33
2012-3-14,82,67,53,56,50,45,91,59,30,29.79,29.65,10,1,10,0.00
2012-3-15,84,69,61,61,55,46,98,65,31,29.79,29.65,13,2,13,0.58
2012-3-16,70,63,56,65,60,56,98,90,69,29.79,29.68,10,1,10,0.37
2012-3-17,80,66,56,67,60,54,98,83,44,29.79,29.68,14,1,14,0.33
2012-3-18,83,69,59,66,60,54,98,75,40,29.79,29.62,10,2,10,0.17
2012-3-19,85,73,62,57,48,38,71,43,21,29.74,29.59,12,2,12,0.00
2012-3-20,85,74,64,56,50,46,73,46,28,29.71,29.59,9,1,9,0.00
2012-3-21,87,73,62,59,51,43,83,49,22,29.76,29.59,11,1,11,0.00
2012-3-22,84,72,61,61,52,0,82,52,31,29.76,29.59,10,1,10,0.04
2012-3-23,73,66,60,70,64,55,98,92,67,29.65,29.35,12,1,12,1.49
2012-3-24,66,58,51,59,48,38,98,74,36,29.50,29.41,8,2,8,0.05
2012-3-25,71,61,51,57,50,46,95,69,43,29.62,29.47,12,2,12,0.00
2012-3-26,68,60,53,54,38,21,90,50,22,29.85,29.62,15,3,15,0.00
2012-3-27,72,56,42,39,27,20,46,33,22,29.88,29.59,10,2,10,0.00
2012-3-28,82,69,58,59,46,39,69,45,31,29.59,29.47,10,2,10,0.12
2012-3-29,73,62,52,48,39,33,76,46,23,29.68,29.53,8,1,8,0.00
2012-3-30,84,69,56,53,42,0,64,39,27,29.56,29.29,14,2,14,0.08
2012-3-31,68,61,54,59,51,41,95,72,43,29.50,29.35,8,2,9,0.08
2012-4-1,78,61,51,68,55,44,98,82,53,29.50,29.26,16,1,16,1.00
2012-4-2,72,66,62,63,53,41,98,68,39,30.24,29.26,9,1,9,0.00
2012-4-3,87,73,57,59,50,42,75,47,30,29.53,29.35,6,1,6,0.00
2012-4-4,80,68,61,68,61,54,98,79,44,29.44,29.29,15,1,15,0.42
2012-4-5,64,57,47,56,35,23,92,48,24,29.56,29.35,16,4,16,0.50
2012-4-6,64,52,41,29,26,21,58,38,21,29.79,29.56,19,4,19,0.00
2012-4-7,70,56,41,34,27,19,74,37,17,29.91,29.74,8,1,8,0.00
2012-4-8,69,56,50,42,30,20,57,38,17,29.85,29.71,15,1,15,0.00
2012-4-9,71,59,47,33,25,14,55,30,15,29.85,29.68,13,2,13,0.00
2012-4-10,63,53,43,30,20,10,50,28,16,29.82,29.71,14,2,15,0.00
2012-4-11,56,47,38,30,20,15,66,36,25,29.97,29.79,12,2,13,0.00
2012-4-12,65,51,37,35,28,21,83,46,20,30.06,29.82,6,1,8,0.00
2012-4-13,68,57,41,40,32,26,80,44,22,29.94,29.82,10,1,11,0.00
2012-4-14,71,64,54,58,48,37,86,57,39,29.85,29.65,9,2,9,0.04
2012-4-15,84,72,62,55,49,42,72,45,24,29.76,29.53,13,4,13,0.00
2012-4-16,74,67,55,63,48,37,89,51,33,29.97,29.53,12,3,12,0.13
2012-4-17,64,59,52,49,42,34,82,55,33,30.06,29.94,7,1,8,0.00
2012-4-18,72,61,50,44,34,22,76,41,16,29.94,29.74,10,2,10,0.00
2012-4-19,79,64,47,44,38,31,79,43,20,29.79,29.59,10,1,10,0.00
2012-4-20,81,68,50,54,47,42,91,52,29,29.59,29.41,13,3,17,0.12
2012-4-21,55,50,45,49,39,35,89,66,55,29.71,29.56,9,3,10,0.12
2012-4-22,58,51,44,41,28,21,86,45,25,29.65,29.56,15,4,17,0.00
2012-4-23,63,52,41,28,20,14,48,29,16,29.62,29.50,17,4,22,0.00
2012-4-24,65,56,44,47,32,24,73,43,24,29.56,29.47,14,1,14,0.00
2012-4-25,77,66,52,62,54,46,91,69,39,29.50,29.35,6,1,6,0.00
2012-4-26,83,70,53,65,49,22,96,52,24,29.76,29.32,17,4,17,0.09
2012-4-27,67,57,45,28,22,15,40,27,17,29.94,29.71,11,3,11,0.00
2012-4-28,78,65,53,56,42,24,91,45,27,29.82,29.62,18,2,18,0.50
2012-4-29,78,66,53,61,58,52,98,76,54,29.91,29.74,12,2,12,0.58
2012-4-30,85,72,62,68,61,50,98,73,32,29.79,29.62,8,1,8,0.58
2012-5-1,83,72,65,73,66,60,98,83,52,29.79,29.59,8,1,8,0.58
2012-5-2,91,80,70,66,60,53,76,52,30,29.76,29.65,8,2,8,0.58
2012-5-3,87,76,68,68,61,56,89,63,38,29.79,29.71,8,2,8,0.00
2012-5-4,87,74,68,68,65,60,91,76,44,29.74,29.53,13,1,13,0.04
2012-5-5,84,74,66,71,65,56,98,78,43,29.68,29.59,15,1,15,0.75
2012-5-6,86,77,68,72,64,56,98,68,37,29.74,29.59,8,1,8,0.04
2012-5-7,88,76,67,68,62,54,97,67,32,29.59,29.44,8,2,8,0.04
2012-5-8,69,68,68,67,67,65,96,95,88,29.53,29.50,0,0,4,0.00
2012-5-9,68,67,60,67,62,37,96,86,34,29.65,29.50,11,0,11,0.04
2012-5-10,72,61,52,46,38,29,77,46,21,29.74,29.59,9,2,11,0.00
2012-5-11,78,68,51,51,39,29,85,40,20,29.91,29.68,7,1,7,0.00
2012-5-12,73,68,62,63,50,43,96,55,36,29.97,29.88,4,1,5,0.04
2012-5-13,65,62,61,64,62,60,98,98,93,29.91,29.71,8,1,8,2.28
2012-5-14,76,67,62,64,59,50,98,80,41,29.79,29.68,13,2,13,0.00
2012-5-15,81,74,65,61,55,47,78,52,31,29.76,29.65,9,1,9,0.00
2012-5-16,85,72,59,63,54,0,98,59,29,29.71,29.59,9,1,9,0.00
2012-5-17,79,69,60,43,38,30,49,33,22,29.79,29.68,11,3,11,0.00
2012-5-18,86,71,57,52,47,39,67,44,25,29.82,29.68,57,1,57,0.00
2012-5-19,87,75,64,60,54,49,82,51,29,29.85,29.71,6,1,6,0.00
2012-5-20,88,76,66,64,58,47,89,56,27,29.88,29.71,10,1,10,0.00
2012-5-21,79,73,67,62,58,0,100,60,42,29.76,29.65,11,2,11,0.00
2012-5-22,79,68,60,55,48,44,68,50,31,29.71,29.56,9,3,10,0.00
2012-5-23,85,72,61,59,52,45,80,52,28,29.62,29.53,6,1,6,0.00
2012-5-24,90,77,64,63,51,39,89,46,18,30.00,29.53,11,2,11,0.00
2012-5-25,91,80,72,63,57,46,59,46,30,30.09,29.91,6,2,6,0.00
2012-5-26,93,84,72,69,60,54,84,47,28,30.21,30.06,6,1,6,0.00
2012-5-27,93,82,71,69,63,55,88,56,29,30.18,30.00,5,1,5,0.00
2012-5-28,94,83,72,71,65,56,90,58,29,30.06,29.88,6,1,6,0.00
2012-5-29,81,74,68,74,67,61,98,80,61,30.00,29.88,17,1,17,4.12
2012-5-30,81,74,65,70,57,44,98,64,30,29.97,29.91,10,1,10,0.00
2012-5-31,85,77,66,66,51,46,98,46,29,29.91,29.71,17,2,17,0.62
2012-6-1,67,62,57,66,59,50,98,90,72,30.00,29.68,12,1,12,0.42
2012-6-2,73,63,53,54,49,41,96,65,33,30.06,29.94,7,1,7,0.00
2012-6-3,82,75,62,61,52,45,87,47,27,30.00,29.88,7,1,7,0.00
2012-6-4,73,67,64,66,60,49,98,78,43,29.97,29.82,10,1,10,0.16
2012-6-5,77,67,59,63,51,40,98,63,29,30.00,29.88,172,2,172,0.00
2012-6-6,77,67,58,52,46,37,78,50,25,30.09,30.00,11,2,11,0.00
2012-6-7,83,70,57,56,46,34,91,48,19,30.18,30.06,12,1,12,0.00
2012-6-8,87,74,60,58,46,35,88,45,16,30.18,30.03,10,1,10,0.00
2012-6-9,89,76,62,60,52,41,83,47,21,30.09,29.97,4,0,4,0.00
2012-6-10,86,76,68,63,59,53,80,57,37,30.12,30.00,6,0,6,0.00
2012-6-11,87,77,71,70,66,61,89,71,47,30.06,29.91,4,1,4,0.00
2012-6-12,86,76,69,70,57,35,97,60,20,30.09,29.94,13,1,13,0.00
2012-6-13,85,73,63,47,42,38,46,34,21,30.18,30.06,9,2,11,0.00
2012-6-14,87,74,63,52,43,34,65,36,18,30.18,30.09,10,2,10,0.00
2012-6-15,92,77,62,59,52,41,75,44,17,30.21,30.06,6,1,6,0.00
2012-6-16,90,78,52,74,65,39,89,64,38,30.27,30.09,10,1,10,0.12
2012-6-17,81,76,73,75,68,64,93,75,59,30.12,29.94,8,2,8,0.29
2012-6-18,93,81,71,68,61,52,88,56,26,30.03,29.94,8,2,8,0.00
2012-6-19,94,82,72,63,58,53,72,47,27,30.18,30.03,6,1,6,0.00
2012-6-20,93,82,71,65,60,54,80,50,28,30.24,30.06,6,1,6,0.00
2012-6-21,94,82,72,67,58,46,81,48,21,30.12,29.94,6,1,6,0.00
2012-6-22,91,80,73,67,53,39,78,43,18,30.03,29.94,12,2,12,0.00
2012-6-23,92,80,69,50,43,36,50,29,15,30.09,30.00,9,2,9,0.00
2012-6-24,93,83,70,57,46,36,62,31,14,30.06,29.94,8,1,8,0.00
2012-6-25,90,81,73,61,50,31,64,37,15,30.00,29.88,14,2,14,0.00
2012-6-26,85,74,64,37,33,30,33,23,16,30.09,29.97,13,2,13,0.00
2012-6-27,93,77,62,52,43,36,66,33,17,30.12,29.97,6,0,6,0.00
2012-6-28,104,85,68,53,47,36,57,31,12,30.06,29.88,4,0,4,0.00
2012-6-29,104,89,78,62,53,39,44,30,12,29.97,29.85,10,0,10,0.92
2012-6-30,103,88,75,67,57,39,71,40,12,29.94,29.82,6,1,9,0.00
2012-7-1,102,87,75,68,58,42,79,42,17,30.09,29.91,23,1,23,0.08
2012-7-2,99,84,72,68,60,47,80,51,18,30.12,29.94,10,1,10,0.00
2012-7-3,97,84,73,62,59,53,67,44,25,30.09,29.94,6,1,6,0.00
2012-7-4,101,88,76,67,61,50,71,44,18,30.06,29.94,6,1,6,0.00
2012-7-5,100,86,72,75,61,45,92,50,16,30.06,29.94,11,1,11,0.21
2012-7-6,102,88,76,62,55,44,59,36,15,30.06,29.94,6,1,6,0.25
2012-7-7,104,91,79,70,58,44,70,38,14,30.06,29.94,9,1,9,0.04
2012-7-8,95,82,75,71,65,57,85,58,36,30.06,29.94,23,1,23,0.04
2012-7-9,87,79,73,74,61,47,94,58,26,30.09,30.00,9,1,9,0.00
2012-7-10,95,82,71,63,51,40,74,41,16,30.09,30.00,9,1,9,0.00
2012-7-11,96,83,73,57,49,37,54,33,14,30.15,30.00,10,1,10,0.00
2012-7-12,87,78,72,72,62,52,98,60,37,30.15,30.06,8,1,8,0.66
2012-7-13,81,75,70,73,69,65,98,82,58,30.18,30.06,7,1,7,0.66
2012-7-14,86,76,73,77,72,61,98,88,47,30.21,30.12,13,0,13,1.25
2012-7-15,90,79,73,73,70,63,98,79,43,30.21,30.06,5,1,5,0.66
2012-7-16,95,84,75,75,69,58,97,65,31,30.15,29.97,8,1,8,0.66
2012-7-17,98,86,76,72,65,57,80,53,27,30.06,29.94,7,1,7,0.66
2012-7-18,99,84,75,76,69,59,89,64,30,30.06,29.94,10,1,10,0.66
2012-7-19,98,82,73,74,70,62,98,72,34,30.06,29.88,24,2,24,1.33
2012-7-20,86,77,72,78,72,63,98,87,55,30.09,29.94,11,2,13,0.29
2012-7-21,88,77,68,66,60,51,90,58,30,30.15,30.06,10,2,10,0.05
2012-7-22,92,80,69,68,57,44,93,52,19,30.21,30.12,6,1,6,0.05
2012-7-23,97,86,76,73,65,53,83,53,29,30.18,30.06,6,2,6,0.00
2012-7-24,97,86,80,70,66,60,66,52,31,30.09,29.94,10,2,10,0.00
2012-7-25,100,88,78,74,67,57,84,55,26,29.97,29.82,6,2,6,0.00
2012-7-26,98,88,77,75,65,59,89,49,32,29.91,29.76,8,2,8,0.04
2012-7-27,97,82,72,75,67,50,96,67,22,30.03,29.88,20,2,20,0.50
2012-7-28,88,77,69,72,62,50,98,65,29,30.12,30.00,10,2,10,0.04
2012-7-29,88,78,69,66,57,42,87,53,22,30.18,30.03,8,1,8,0.00
2012-7-30,91,80,69,65,58,51,84,50,29,30.09,29.94,6,1,6,0.00
2012-7-31,94,83,73,67,60,47,78,49,21,30.03,29.88,6,1,8,0.00
2012-8-1,94,84,76,67,56,37,71,44,14,30.00,29.88,12,2,12,0.00
2012-8-2,96,82,68,60,50,38,71,38,14,30.00,29.85,7,1,7,0.00
2012-8-3,84,77,73,77,71,52,98,81,35,29.97,29.88,8,1,8,0.34
2012-8-4,91,81,76,79,73,0,98,79,49,30.09,29.94,8,1,8,0.00
2012-8-5,86,80,77,73,71,67,84,73,55,30.18,30.06,6,2,6,0.00
2012-8-6,90,80,73,73,62,47,98,60,25,30.21,30.06,8,1,8,0.00
2012-8-7,94,81,70,68,57,45,79,49,19,30.12,29.97,6,1,6,0.00
2012-8-8,97,84,70,63,55,44,76,42,17,30.09,29.94,8,1,8,0.00
2012-8-9,91,80,75,67,59,47,72,50,30,30.00,29.82,17,2,17,0.00
2012-8-10,82,75,70,66,56,46,78,52,29,29.97,29.76,13,2,13,0.00
2012-8-11,85,71,62,52,43,31,69,41,16,30.06,29.97,8,1,10,0.00
2012-8-12,86,73,60,55,44,28,77,41,13,30.18,30.03,10,1,10,0.00
2012-8-13,77,72,67,67,60,45,88,66,35,30.09,29.94,11,1,11,0.12
2012-8-14,82,74,70,68,61,52,90,67,39,30.00,29.94,10,1,10,0.12
2012-8-15,87,78,68,64,52,39,81,47,19,30.09,29.97,8,1,8,0.12
2012-8-16,91,80,69,68,59,46,95,53,29,30.06,29.88,8,2,8,0.62
2012-8-17,83,73,68,69,60,39,98,72,22,30.03,29.94,9,1,9,0.05
2012-8-18,82,73,63,54,45,36,72,41,20,30.06,29.94,9,1,9,0.00
2012-8-19,83,72,63,51,42,28,61,36,16,30.00,29.91,10,1,10,0.00
2012-8-20,85,77,65,46,38,32,47,26,16,30.06,29.97,10,1,10,0.00
2012-8-21,81,72,66,58,45,40,64,39,25,30.15,30.03,8,0,8,0.03
2012-8-22,87,73,60,58,48,35,88,49,18,30.21,30.09,6,1,6,0.00
2012-8-23,91,75,62,58,49,24,81,45,15,30.21,30.06,7,1,7,0.00
2012-8-24,94,78,65,59,50,36,80,44,14,30.15,30.03,8,1,8,0.00
2012-8-25,93,80,69,61,53,41,72,44,18,30.18,30.06,8,1,8,0.00
2012-8-26,93,80,70,66,58,49,80,50,24,30.24,30.06,5,1,5,0.00
2012-8-27,89,80,73,75,64,59,96,60,38,30.15,30.03,10,1,10,0.05
2012-8-28,90,80,71,74,52,35,98,46,15,30.15,30.00,12,3,12,0.00
2012-8-29,90,79,68,57,47,30,66,36,12,30.15,30.00,11,2,11,0.00
2012-8-30,94,86,67,60,49,43,63,29,18,30.15,30.06,7,2,7,0.00
2012-8-31,90,81,75,71,67,60,82,62,40,30.27,30.09,6,1,6,0.00
2012-9-1,88,79,73,78,70,65,98,77,48,30.15,30.00,11,1,11,0.79
2012-9-2,78,74,73,77,74,72,98,98,96,30.03,29.82,9,1,9,0.74
2012-9-3,76,74,74,76,74,73,98,98,98,29.91,29.85,115,1,115,0.05
2012-9-4,88,79,73,78,73,67,98,84,50,29.97,29.47,4,0,4,0.05
2012-9-5,90,77,71,77,72,59,98,87,42,29.97,29.85,30,1,30,1.16
2012-9-6,87,76,70,73,69,65,98,82,50,30.06,29.94,6,0,6,0.05
2012-9-7,91,80,71,73,66,55,98,68,32,30.03,29.74,25,1,25,0.00
2012-9-8,76,69,63,69,55,36,98,66,25,30.06,29.74,17,2,25,1.12
2012-9-9,78,68,58,56,48,36,86,53,23,30.15,30.00,12,2,12,0.00
2012-9-10,78,69,61,54,46,34,77,47,21,30.30,30.12,7,2,7,0.00
2012-9-11,81,69,58,56,49,38,87,53,21,30.36,30.18,8,1,8,0.00
2012-9-12,84,72,62,61,55,46,90,59,30,30.39,30.24,6,1,6,0.00
2012-9-13,83,74,66,64,56,47,89,58,30,30.39,30.24,6,1,6,0.00
2012-9-14,81,70,64,63,57,50,92,67,36,30.36,30.24,11,2,11,0.00
2012-9-15,76,67,58,52,43,32,71,45,21,30.39,30.18,9,1,9,0.00
2012-9-16,79,70,62,61,49,42,77,49,31,30.24,30.06,6,1,6,0.00
2012-9-17,71,69,68,69,65,61,98,88,76,30.09,29.82,6,0,6,0.04
2012-9-18,70,66,57,68,52,28,98,69,23,30.12,29.71,15,2,15,0.05
2012-9-19,70,59,48,46,37,26,85,48,22,30.30,30.12,8,1,8,0.00
2012-9-20,79,65,51,48,43,38,80,49,23,30.15,29.97,7,1,7,0.00
2012-9-21,77,68,59,57,53,47,85,59,43,30.12,29.82,9,1,9,0.00
2012-9-22,75,68,56,56,40,18,75,40,16,30.24,29.85,18,3,18,0.00
2012-9-23,67,56,46,40,31,25,75,42,23,30.33,30.24,8,1,8,0.00
2012-9-24,70,57,45,43,35,15,82,48,19,30.39,30.12,6,1,6,0.00
2012-9-25,71,62,56,66,52,37,98,69,47,30.18,30.00,7,1,7,0.45
2012-9-26,77,69,64,68,64,58,98,88,64,30.21,30.06,13,1,13,1.58
2012-9-27,75,69,65,72,66,62,98,91,66,30.24,30.12,7,0,7,0.16
2012-9-28,76,70,64,73,65,51,98,86,56,30.18,30.06,10,1,10,0.16
2012-9-29,73,64,56,61,54,45,94,71,38,30.15,30.00,8,1,8,0.16
2012-9-30,75,65,55,60,51,41,98,66,33,30.03,29.88,6,1,6,0.16
2012-10-1,66,61,59,60,52,40,98,73,45,29.91,29.68,10,2,10,0.62
2012-10-2,67,63,61,65,61,58,98,94,82,29.97,29.65,6,1,6,0.20
2012-10-3,75,65,58,59,51,41,92,66,32,30.21,29.97,7,1,7,0.20
2012-10-4,79,66,58,58,53,45,92,66,33,30.33,30.18,7,1,7,0.20
2012-10-5,77,66,49,61,55,42,92,69,46,30.21,30.00,16,1,16,0.20
2012-10-6,59,51,44,44,34,23,93,58,26,30.27,30.12,11,2,11,0.20
2012-10-7,57,51,46,34,30,23,62,45,28,30.27,30.18,9,2,9,0.20
2012-10-8,59,50,45,38,33,22,77,55,25,30.33,30.18,6,0,6,0.20
2012-10-9,66,52,41,44,37,32,87,61,30,30.27,30.06,6,1,6,0.20
2012-10-10,60,54,44,44,34,0,69,49,25,30.36,30.03,13,2,13,0.20
2012-10-11,63,50,38,38,32,25,82,54,24,30.41,30.24,6,0,6,0.20
2012-10-12,66,57,49,48,40,34,83,55,32,30.41,30.24,9,1,9,0.20
2012-10-13,75,62,49,60,49,35,74,64,46,30.39,30.09,8,2,8,0.20
2012-10-14,75,69,64,60,54,46,85,60,37,30.09,29.82,17,4,17,0.04
2012-10-15,66,58,52,59,39,27,83,51,25,30.06,29.91,13,1,13,0.00
2012-10-16,70,57,45,44,40,34,86,56,28,30.09,29.88,6,1,6,0.00
2012-10-17,75,65,56,51,42,32,77,47,24,29.91,29.59,12,2,12,0.00
2012-10-18,68,59,54,55,40,25,93,55,24,29.79,29.53,24,3,24,0.25
2012-10-19,59,54,51,44,36,28,75,52,35,29.85,29.65,8,2,8,0.04
2012-10-20,57,53,49,46,43,39,83,70,51,30.09,29.82,5,0,5,0.00
2012-10-21,71,57,44,50,43,38,94,65,32,30.21,30.06,7,1,7,0.00
2012-10-22,80,67,57,52,47,42,72,51,30,30.21,30.06,6,1,6,0.00
2012-10-23,81,70,60,47,41,33,62,38,20,30.15,30.03,7,2,7,0.00
2012-10-24,81,70,61,50,44,39,63,40,26,30.18,30.06,6,1,6,0.00
2012-10-25,81,67,55,54,47,39,81,52,25,30.15,29.97,10,1,10,0.00
2012-10-26,70,54,46,49,44,39,95,74,43,30.27,30.00,14,4,14,0.62
2012-10-27,56,50,44,44,35,26,92,59,35,30.24,30.12,18,5,18,0.00
2012-10-28,52,48,43,29,25,20,54,40,29,30.18,30.09,15,6,15,0.00
2012-10-29,57,48,40,24,18,10,45,31,17,30.15,29.91,24,6,24,0.00
2012-10-30,48,45,44,31,26,22,59,47,37,29.91,29.74,18,3,18,0.00
2012-10-31,54,47,40,28,23,20,50,38,28,29.97,29.82,11,1,11,0.00
2012-11-1,59,48,36,24,19,11,55,35,17,30.03,29.94,7,1,7,0.00
2012-11-2,57,51,34,28,24,0,55,35,25,30.15,29.88,11,2,11,0.00
2012-11-3,50,44,38,38,33,27,76,67,50,30.24,30.09,12,2,12,4.28
2012-11-4,53,45,38,36,31,21,79,61,29,30.27,30.18,9,3,9,0.00
2012-11-5,52,47,35,31,26,24,80,46,36,30.27,30.12,8,2,8,0.00
2012-11-6,56,47,36,38,27,22,75,48,27,30.15,29.97,6,1,6,0.00
2012-11-7,50,46,41,41,38,32,87,73,52,30.21,29.94,7,1,7,0.03
2012-11-8,56,44,35,39,32,28,90,67,36,30.33,30.18,6,0,6,0.00
2012-11-9,65,49,35,40,33,28,88,58,26,30.33,30.18,8,1,8,0.00
2012-11-10,74,61,50,41,33,28,52,37,22,30.30,30.18,10,2,229,4.22
2012-11-11,72,63,56,39,32,26,39,31,22,30.30,30.12,15,4,15,0.00
2012-11-12,65,51,42,52,32,20,77,48,38,30.39,30.06,13,4,13,0.38
2012-11-13,48,39,31,29,22,13,84,56,27,30.59,30.39,10,1,10,0.04
2012-11-14,49,43,34,22,20,13,61,40,29,30.56,30.41,9,2,9,0.04
2012-11-15,50,40,32,27,24,20,78,55,31,30.44,30.36,8,1,230,0.00
2012-11-16,53,42,33,30,26,20,82,56,29,30.50,30.41,9,1,9,0.04
2012-11-17,59,44,33,32,26,0,82,54,24,30.56,30.44,6,1,6,0.92
2012-11-18,61,45,33,32,26,19,80,51,21,30.50,30.39,6,0,6,0.04
2012-11-19,62,48,36,34,28,22,77,50,24,30.41,30.24,5,0,5,1.49
2012-11-20,66,55,42,37,32,28,73,44,26,30.27,30.09,4,0,4,0.04
2012-11-21,63,53,45,41,34,29,71,52,27,30.33,30.18,6,1,7,0.00
2012-11-22,57,43,38,42,35,33,87,74,40,30.30,30.12,7,0,7,0.00
2012-11-23,59,50,34,43,23,10,62,36,26,30.30,30.06,16,5,16,0.00
2012-11-24,39,33,28,16,11,8,52,40,31,30.36,30.21,10,2,10,0.00
2012-11-25,58,44,31,21,16,13,53,36,19,30.21,29.94,11,2,11,0.00
2012-11-26,51,44,34,34,24,18,66,47,35,30.30,30.09,172,1,172,0.04
2012-11-27,45,39,32,33,25,18,78,58,37,30.41,30.27,14,3,14,0.04
2012-11-28,48,36,28,27,20,14,79,56,28,30.50,30.36,8,1,8,0.00
2012-11-29,55,40,28,27,22,18,75,51,27,30.47,30.30,8,1,8,0.00
2012-11-30,61,51,44,32,27,21,57,40,33,30.33,30.18,12,3,230,0.00
2012-12-1,68,58,47,40,35,32,58,44,32,30.33,30.18,11,2,11,0.00
2012-12-2,66,62,59,57,49,38,82,63,44,30.24,30.12,17,4,17,0.09
2012-12-3,75,67,62,57,50,42,81,56,35,30.24,30.12,13,4,13,0.04
2012-12-4,68,61,49,60,49,38,96,66,43,30.30,30.06,14,4,14,0.37
2012-12-5,56,47,40,44,35,25,98,66,35,30.41,30.30,8,2,9,0.00
2012-12-6,52,44,35,48,34,25,95,69,46,30.33,30.06,6,1,6,0.08
2012-12-7,58,55,50,58,54,48,98,98,95,30.06,29.94,5,0,5,1.13
2012-12-8,59,56,51,58,54,48,98,93,78,30.09,29.88,11,1,11,0.45
2012-12-9,65,58,51,64,57,50,98,97,91,30.09,29.76,11,1,11,1.04
2012-12-10,58,44,35,58,37,23,98,78,61,30.06,29.76,13,4,13,0.04
2012-12-11,41,35,31,26,22,18,77,60,40,30.33,30.06,9,1,9,0.00
2012-12-12,46,35,27,28,22,16,83,61,31,30.44,30.30,7,0,7,0.00
2012-12-13,50,37,28,29,23,17,85,60,30,30.50,30.33,4,0,172,0.00
2012-12-14,58,42,30,30,23,17,81,52,24,30.39,30.18,8,1,8,8.05
2012-12-15,58,50,44,49,38,24,86,63,44,30.21,29.85,17,2,17,0.21
2012-12-16,65,60,56,56,50,43,91,73,49,29.88,29.71,12,2,13,0.21
2012-12-17,64,55,49,58,52,45,98,91,62,29.82,29.59,11,2,11,0.21
2012-12-18,50,46,42,45,34,29,87,65,48,29.97,29.74,14,4,14,0.21
2012-12-19,53,47,40,36,31,28,67,53,39,30.15,29.88,8,2,8,0.21
2012-12-20,58,48,34,53,37,18,98,68,44,29.97,29.38,21,6,21,0.75
2012-12-21,38,33,29,23,16,11,63,49,39,30.30,29.76,20,5,20,0.21
2012-12-22,41,31,24,17,13,11,60,47,33,30.39,30.12,8,2,11,0.21
2012-12-23,56,44,30,33,22,0,59,44,27,30.15,29.94,8,2,8,0.21
2012-12-24,53,46,36,50,40,24,98,80,57,30.09,29.82,13,2,13,0.21
2012-12-25,40,37,35,27,23,20,66,55,46,30.21,30.00,14,3,14,0.21
2012-12-26,37,34,33,34,28,23,98,80,66,30.09,29.62,19,5,19,0.79
2012-12-27,37,35,32,25,23,21,71,63,53,30.27,30.06,7,2,11,5.77
2012-12-28,40,36,34,32,25,22,88,63,53,30.24,29.82,9,2,9,0.08
2012-12-29,36,33,29,33,27,14,94,77,54,30.36,29.79,11,2,11,0.00
2012-12-30,37,30,24,22,17,12,73,58,43,30.56,30.36,8,2,11,0.08
2012-12-31,41,36,29,33,24,22,84,64,52,30.41,30.12,10,2,10,0.21
2013-1-1,38,36,33,36,30,19,93,79,56,30.24,30.09,9,2,9,0.13